TimeCDT,TemperatureF,Dew PointF,Humidity,Sea Level PressureIn,VisibilityMPH,Wind Direction,Wind SpeedMPH,Gust SpeedMPH,PrecipitationIn,Events,Conditions,WindDirDegrees,DateUTC
12:15 AM,37.4,26.6,65,30.00,10.0,Calm,Calm,-,N/A,,Clear,0,2014-05-17 05:15:00
12:35 AM,37.4,26.6,65,30.00,10.0,SW,5.8,-,N/A,,Clear,220,2014-05-17 05:35:00
12:55 AM,37.4,28.4,70,29.99,10.0,SW,4.6,-,N/A,,Clear,230,2014-05-17 05:55:00
1:15 AM,35.6,26.6,70,29.99,10.0,Calm,Calm,-,N/A,,Clear,0,2014-05-17 06:15:00
1:35 AM,37.4,24.8,60,29.99,10.0,SW,4.6,-,N/A,,Clear,220,2014-05-17 06:35:00
1:55 AM,37.4,24.8,60,29.99,10.0,Calm,Calm,-,N/A,,Clear,0,2014-05-17 06:55:00
2:15 AM,35.6,24.8,65,29.99,10.0,SW,4.6,-,N/A,,Clear,220,2014-05-17 07:15:00
2:55 AM,37.4,24.8,60,29.99,10.0,WSW,3.5,-,N/A,,Clear,240,2014-05-17 07:55:00
3:15 AM,35.6,24.8,65,29.98,10.0,SSW,6.9,-,N/A,,Clear,210,2014-05-17 08:15:00
3:35 AM,33.8,24.8,70,29.97,10.0,SW,5.8,-,N/A,,Clear,220,2014-05-17 08:35:00
3:55 AM,35.6,24.8,65,29.97,10.0,SSW,3.5,-,N/A,,Clear,210,2014-05-17 08:55:00
4:15 AM,35.6,24.8,65,29.97,10.0,SW,3.5,-,N/A,,Clear,220,2014-05-17 09:15:00
4:35 AM,33.8,26.6,75,29.96,10.0,SW,3.5,-,N/A,,Clear,220,2014-05-17 09:35:00
4:55 AM,35.6,26.6,70,29.96,10.0,SW,4.6,-,N/A,,Clear,230,2014-05-17 09:55:00
5:15 AM,35.6,26.6,70,29.95,10.0,SW,4.6,-,N/A,,Unknown,220,2014-05-17 10:15:00
5:35 AM,37.4,26.6,65,29.95,10.0,SSW,4.6,-,N/A,,Unknown,200,2014-05-17 10:35:00
5:55 AM,35.6,26.6,70,29.95,10.0,Calm,Calm,-,N/A,,Unknown,0,2014-05-17 10:55:00
6:15 AM,35.6,26.6,70,29.94,10.0,Calm,Calm,-,N/A,,Unknown,0,2014-05-17 11:15:00
6:35 AM,41.0,26.6,57,29.93,10.0,WSW,4.6,-,N/A,,Unknown,240,2014-05-17 11:35:00
7:15 AM,46.4,28.4,50,29.93,10.0,West,5.8,-,N/A,,Unknown,260,2014-05-17 12:15:00
7:35 AM,48.2,28.4,46,29.93,10.0,WSW,6.9,-,N/A,,Unknown,250,2014-05-17 12:35:00
7:55 AM,48.2,30.2,50,29.93,10.0,West,6.9,-,N/A,,Unknown,270,2014-05-17 12:55:00
8:15 AM,50.0,32.0,50,29.93,10.0,WNW,5.8,-,N/A,,Unknown,300,2014-05-17 13:15:00
8:55 AM,53.6,33.8,47,29.93,10.0,WNW,8.1,-,N/A,,Unknown,290,2014-05-17 13:55:00
9:35 AM,55.4,35.6,47,29.93,10.0,NNW,10.4,16.1,N/A,,Unknown,330,2014-05-17 14:35:00
9:55 AM,57.2,33.8,41,29.93,10.0,North,10.4,-,N/A,,Unknown,350,2014-05-17 14:55:00
10:15 AM,59.0,32.0,36,29.93,10.0,North,11.5,-,N/A,,Unknown,350,2014-05-17 15:15:00
10:35 AM,59.0,32.0,36,29.93,10.0,North,8.1,-,N/A,,Unknown,10,2014-05-17 15:35:00
10:55 AM,59.0,32.0,36,29.93,10.0,North,10.4,-,N/A,,Unknown,10,2014-05-17 15:55:00
11:15 AM,59.0,32.0,36,29.94,10.0,North,9.2,-,N/A,,Unknown,360,2014-05-17 16:15:00
11:35 AM,60.8,32.0,34,29.94,10.0,North,10.4,-,N/A,,Unknown,350,2014-05-17 16:35:00
11:55 AM,62.6,32.0,32,29.93,10.0,North,9.2,-,N/A,,Unknown,350,2014-05-17 16:55:00
12:15 PM,62.6,32.0,32,29.93,10.0,North,6.9,-,N/A,,Unknown,10,2014-05-17 17:15:00
12:35 PM,64.4,28.4,26,29.93,10.0,NNW,3.5,-,N/A,,Clear,340,2014-05-17 17:35:00
1:15 PM,66.2,26.6,23,29.92,10.0,NW,16.1,20.7,N/A,,Clear,320,2014-05-17 18:15:00
1:35 PM,66.2,26.6,23,29.92,10.0,North,11.5,-,N/A,,Clear,350,2014-05-17 18:35:00
1:55 PM,66.2,26.6,23,29.92,10.0,North,10.4,17.3,N/A,,Clear,360,2014-05-17 18:55:00
2:15 PM,66.2,26.6,23,29.91,10.0,NW,13.8,18.4,N/A,,Clear,310,2014-05-17 19:15:00
2:35 PM,68.0,28.4,23,29.91,10.0,North,6.9,21.9,N/A,,Clear,350,2014-05-17 19:35:00
2:55 PM,68.0,28.4,23,29.90,10.0,North,18.4,21.9,N/A,,Clear,360,2014-05-17 19:55:00
3:15 PM,68.0,28.4,23,29.90,10.0,NNW,16.1,25.3,N/A,,Clear,340,2014-05-17 20:15:00
3:35 PM,68.0,28.4,23,29.90,10.0,NNW,10.4,17.3,N/A,,Partly Cloudy,340,2014-05-17 20:35:00
3:55 PM,68.0,28.4,23,29.90,10.0,NNW,12.7,20.7,N/A,,Partly Cloudy,340,2014-05-17 20:55:00
4:15 PM,66.2,28.4,24,29.89,10.0,North,13.8,26.5,N/A,,Scattered Clouds,360,2014-05-17 21:15:00
4:35 PM,69.8,30.2,23,29.89,10.0,North,13.8,19.6,N/A,,Scattered Clouds,360,2014-05-17 21:35:00
4:55 PM,66.2,30.2,26,29.89,10.0,North,15.0,18.4,N/A,,Scattered Clouds,350,2014-05-17 21:55:00
5:35 PM,68.0,30.2,24,29.89,10.0,NNE,6.9,-,N/A,,Unknown,20,2014-05-17 22:35:00
5:55 PM,68.0,30.2,24,29.88,10.0,North,8.1,-,N/A,,Unknown,10,2014-05-17 22:55:00
6:15 PM,68.0,30.2,24,29.88,10.0,North,9.2,-,N/A,,Unknown,350,2014-05-17 23:15:00
6:35 PM,66.2,30.2,26,29.88,10.0,North,6.9,-,N/A,,Unknown,10,2014-05-17 23:35:00
6:55 PM,66.2,30.2,26,29.88,10.0,NNE,3.5,-,N/A,,Unknown,20,2014-05-17 23:55:00
7:15 PM,66.2,30.2,26,29.88,10.0,Calm,Calm,-,N/A,,Unknown,0,2014-05-18 00:15:00
7:35 PM,66.2,28.4,24,29.89,10.0,Calm,Calm,-,N/A,,Unknown,0,2014-05-18 00:35:00
7:55 PM,66.2,30.2,26,29.89,10.0,Calm,Calm,-,N/A,,Unknown,0,2014-05-18 00:55:00
8:15 PM,66.2,28.4,24,29.89,10.0,North,4.6,-,N/A,,Unknown,360,2014-05-18 01:15:00
8:35 PM,64.4,32.0,30,29.89,10.0,Calm,Calm,-,N/A,,Unknown,0,2014-05-18 01:35:00
8:55 PM,64.4,32.0,30,29.89,10.0,SW,3.5,-,N/A,,Unknown,230,2014-05-18 01:55:00
9:15 PM,62.6,32.0,32,29.89,10.0,West,4.6,-,N/A,,Unknown,280,2014-05-18 02:15:00
9:35 PM,64.4,32.0,30,29.89,10.0,WNW,3.5,-,N/A,,Unknown,300,2014-05-18 02:35:00
9:55 PM,62.6,32.0,32,29.89,10.0,Calm,Calm,-,N/A,,Unknown,0,2014-05-18 02:55:00
10:15 PM,60.8,33.8,36,29.89,10.0,Calm,Calm,-,N/A,,Unknown,0,2014-05-18 03:15:00
10:35 PM,59.0,35.6,42,29.90,10.0,North,8.1,-,N/A,,Unknown,350,2014-05-18 03:35:00
10:55 PM,57.2,35.6,44,29.91,10.0,North,9.2,-,N/A,,Unknown,360,2014-05-18 03:55:00
11:15 PM,55.4,35.6,47,29.92,10.0,NW,11.5,-,N/A,,Unknown,320,2014-05-18 04:15:00
11:35 PM,53.6,35.6,51,29.92,10.0,NW,9.2,-,N/A,,Unknown,320,2014-05-18 04:35:00
11:55 PM,51.8,35.6,54,29.93,10.0,NW,10.4,-,N/A,,Unknown,320,2014-05-18 04:55:00